Simultaneous Nadir Overpasses (SNOs) Predictions

Prediction of SNOs between AQUA and GOES-15 Satellite Orbit:

Table of predicted SNOs for the next 14.0 days since TLE Epoch: 3/16/2012
Index Date Time (AQUA) AQUA Lat,Lon GOES-15 Lat,Lon Distance(km) Time Diff (sec)
1 03/16/2012 22:35:03 0.00,-134.88 -0.06,-135.30 47.08 80
2 03/18/2012 22:23:01 0.67,-131.96 -0.06,-135.26 375.61 80
3 03/19/2012 10:44:19 0.47,-137.12 0.06,-135.22 216.12 80
4 03/21/2012 10:32:22 -0.15,-134.22 0.06,-135.18 109.55 80
5 03/21/2012 22:53:50 -0.98,-139.42 -0.06,-135.20 481.13 80
6 03/23/2012 10:20:29 -0.75,-131.33 0.06,-135.14 432.66 80
7 03/23/2012 22:41:59 -0.34,-136.55 -0.06,-135.15 158.67 80
8 03/25/2012 22:30:12 0.27,-133.69 -0.06,-135.10 161.09 80
9 03/26/2012 10:51:34 0.88,-138.86 0.05,-135.06 432.67 80
10 03/27/2012 22:18:29 0.85,-130.84 -0.06,-135.04 478.03 80
11 03/28/2012 10:39:53 0.25,-136.03 0.06,-135.00 116.51 80




NCC Satellite Simultaneous Nadir Overpasses (SNOs) Prediction Service
